{"data":{"norad_id":52115,"epoch":"2026-09-19T13:08:55.420224Z","epoch_age_seconds":137716,"freshness":"FRESH","line1":"1 52115U 22029AD  26262.54786366  .00000270  00000+0  19146-4 0  9995","line2":"2 52115  53.1602 272.0340 0001573  76.4081 283.7097 15.34387381250289","mean_motion":15.34387381,"eccentricity":0.0001573,"inclination_deg":53.1602,"raan_deg":272.034,"arg_perigee_deg":76.4081,"mean_anomaly_deg":283.7097,"bstar":1.9146e-5,"rev_number":25028,"period_min":93.848529897418,"perigee_km":461.66467672192,"apogee_km":463.81681686106,"semimajor_km":6840.8777467915,"source":"CELESTRAK","updated_at":"2026-09-20T09:00:39.988420Z"}}